Location: Casone le Fosse
(44.6547°N, 12.1103°E)
Time: 12:18:17
(UTC+00:00)

Cosmos 1656 - Pass Details

Date: 29 October 2020
Orbit: 796 x 851 km, 71.1° (Epoch: 27 November)

Event Time Altitude Azimuth Distance (km) Brightness Sun altitude
Rises 16:32:22 0° 184° (S) 3,330 7.1 -5.6°
Reaches altitude 10° 16:34:51 10° 178° (S) 2,411 6.2 -6.1°
Maximum altitude 16:40:05 45° 107° (ESE) 1,121 4.0 -7.0°
Drops below altitude 10° 16:45:25 10° 37° (NE) 2,462 5.7 -7.9°
Sets 16:47:58 0° 31° (NNE) 3,408 6.4 -8.4°
